| time (UTC) | temp C | wind direction | speed KPH | gust KPH | rain 1hr cm | rain 24hr cm | rain mn cm | humidity % | barometer mb |
| 20260504050238 | 11 | 200 | 8.0 | 25.7 | 0.00 | 0.05 | 0.00 | 61 | 1006.9 |
| 20260504044757 | 11 | 204 | 9.7 | 24.1 | 0.00 | 0.05 | 0.00 | 62 | 1006.9 |
| 20260504044606 | 11 | 249 | 9.7 | 0.0 | 0.00 | 0.00 | 0.00 | 62 | 1007.1 |
| 20260504043253 | 11 | 221 | 9.7 | 19.3 | 0.00 | 0.05 | 0.00 | 62 | 1006.9 |
| 20260504043035 | 11 | 215 | 8.0 | 0.0 | 0.00 | 0.00 | 0.00 | 62 | 1007.1 |
| 20260504041745 | 11 | 188 | 9.7 | 19.3 | 0.00 | 0.05 | 0.00 | 62 | 1006.8 |
| 20260504041554 | 11 | 177 | 8.0 | 0.0 | 0.00 | 0.00 | 0.00 | 62 | 1007.0 |
| 20260504040222 | 11 | 199 | 11.3 | 20.9 | 0.00 | 0.05 | 0.00 | 62 | 1006.9 |
| 20260504040114 | 11 | 215 | 8.0 | 0.0 | 0.00 | 0.00 | 0.00 | 62 | 1007.2 |
| 20260504034737 | 11 | 229 | 6.4 | 19.3 | 0.00 | 0.05 | 0.00 | 63 | 1006.8 |
| 20260504034550 | 11 | 216 | 8.0 | 0.0 | 0.00 | 0.00 | 0.00 | 63 | 1007.0 |
| 20260504033300 | 11 | 223 | 4.8 | 24.1 | 0.00 | 0.05 | 0.05 | 63 | 1006.7 |
| 20260504033050 | 11 | 199 | 9.7 | 0.0 | 0.00 | 0.00 | 0.05 | 63 | 1007.0 |
| 20260504031726 | 11 | 215 | 8.0 | 16.1 | 0.00 | 0.05 | 0.05 | 65 | 1006.9 |
| 20260504031623 | 10 | 209 | 4.8 | 0.0 | 0.00 | 0.00 | 0.05 | 66 | 1007.1 |
| 20260504030238 | 11 | 230 | 8.0 | 19.3 | 0.00 | 0.05 | 0.05 | 68 | 1007.0 |
| 20260504030132 | 10 | 211 | 6.4 | 0.0 | 0.00 | 0.00 | 0.05 | 68 | 1007.2 |
| 20260504024733 | 10 | 225 | 4.8 | 12.9 | 0.00 | 0.05 | 0.05 | 70 | 1007.0 |
| 20260504024536 | 10 | 217 | 3.2 | 0.0 | 0.00 | 0.00 | 0.05 | 71 | 1007.2 |
| 20260504023226 | 10 | 198 | 4.8 | 9.7 | 0.00 | 0.05 | 0.05 | 74 | 1007.2 |
| 20260504023112 | 10 | 194 | 3.2 | 0.0 | 0.00 | 0.00 | 0.05 | 74 | 1007.4 |
| 20260504021740 | 9 | 215 | 6.4 | 16.1 | 0.00 | 0.05 | 0.05 | 80 | 1007.3 |
| 20260504021542 | 9 | 210 | 3.2 | 0.0 | 0.00 | 0.00 | 0.05 | 80 | 1007.5 |
| 20260504020234 | 9 | 219 | 1.6 | 4.8 | 0.00 | 0.05 | 0.05 | 85 | 1007.3 |
| 20260504020005 | 8 | 219 | 1.6 | 0.0 | 0.00 | 0.00 | 0.05 | 86 | 1007.7 |
| 20260504014733 | 8 | 220 | 1.6 | 11.3 | 0.00 | 0.05 | 0.05 | 88 | 1007.4 |
| 20260504014608 | 8 | 222 | 1.6 | 0.0 | 0.00 | 0.00 | 0.05 | 88 | 1007.6 |
| 20260504013220 | 9 | 194 | 0.0 | 4.8 | 0.00 | 0.05 | 0.05 | 88 | 1007.5 |
| 20260504013014 | 8 | 194 | 0.0 | 0.0 | 0.00 | 0.00 | 0.05 | 88 | 1007.8 |
| 20260504011722 | 9 | 194 | 0.0 | 8.0 | 0.00 | 0.05 | 0.05 | 88 | 1007.5 |
| 20260504011502 | 8 | 194 | 3.2 | 0.0 | 0.00 | 0.00 | 0.05 | 89 | 1007.8 |
| 20260504010258 | 8 | 192 | 1.6 | 11.3 | 0.03 | 0.05 | 0.05 | 91 | 1007.5 |
| 20260504010058 | 8 | 194 | 3.2 | 0.0 | 0.00 | 0.00 | 0.05 | 91 | 1007.9 |
| 20260504004738 | 8 | 273 | 0.0 | 0.0 | 0.05 | 0.05 | 0.05 | 91 | 1008.0 |
| 20260504004541 | 8 | 273 | 0.0 | 0.0 | 0.00 | 0.00 | 0.05 | 91 | 1008.1 |
| 20260504003228 | 9 | 275 | 0.0 | 0.0 | 0.05 | 0.05 | 0.05 | 90 | 1007.9 |
| 20260504003111 | 8 | 275 | 0.0 | 0.0 | 0.00 | 0.00 | 0.05 | 90 | 1008.2 |
| 20260504001727 | 9 | 275 | 0.0 | 0.0 | 0.05 | 0.05 | 0.05 | 88 | 1008.1 |
| 20260504001608 | 8 | 275 | 0.0 | 0.0 | 0.00 | 0.00 | 0.05 | 88 | 1008.4 |
| 20260504000220 | 9 | 275 | 1.6 | 14.5 | 0.03 | 0.03 | 0.03 | 85 | 1008.3 |
| 20260503234722 | 10 | 252 | 3.2 | 9.7 | 0.00 | 0.00 | 0.00 | 82 | 1008.2 |
| 20260503234551 | 10 | 251 | 3.2 | 0.0 | 0.00 | 0.00 | 0.00 | 81 | 1008.4 |
| 20260503233229 | 10 | 259 | 1.6 | 22.5 | 0.00 | 0.00 | 0.00 | 78 | 1008.1 |
| 20260503233036 | 10 | 259 | 11.3 | 0.0 | 0.00 | 0.00 | 0.00 | 77 | 1008.4 |
| 20260503231747 | 11 | 231 | 11.3 | 33.8 | 0.00 | 0.00 | 0.00 | 72 | 1008.1 |
| 20260503231552 | 11 | 286 | 11.3 | 0.0 | 0.00 | 0.00 | 0.00 | 72 | 1008.4 |
| 20260503230224 | 11 | 232 | 6.4 | 25.7 | 0.00 | 0.00 | 0.00 | 65 | 1007.8 |
| 20260503230131 | 11 | 235 | 9.7 | 0.0 | 0.00 | 0.00 | 0.00 | 65 | 1008.1 |
| 20260503224724 | 11 | 255 | 9.7 | 29.0 | 0.00 | 0.00 | 0.00 | 63 | 1007.7 |
| 20260503224549 | 11 | 215 | 11.3 | 0.0 | 0.00 | 0.00 | 0.00 | 63 | 1007.8 |
| 20260503223228 | 11 | 239 | 9.7 | 32.2 | 0.00 | 0.00 | 0.00 | 61 | 1007.4 |
| 20260503223015 | 11 | 232 | 11.3 | 0.0 | 0.00 | 0.00 | 0.00 | 61 | 1007.7 |
| 20260503221735 | 12 | 175 | 11.3 | 27.4 | 0.00 | 0.00 | 0.00 | 60 | 1007.4 |
| 20260503221615 | 11 | 230 | 11.3 | 0.0 | 0.00 | 0.00 | 0.00 | 60 | 1007.6 |
| 20260503220228 | 12 | 211 | 8.0 | 24.1 | 0.00 | 0.00 | 0.00 | 59 | 1007.4 |
| 20260503220105 | 11 | 227 | 9.7 | 0.0 | 0.00 | 0.00 | 0.00 | 59 | 1007.6 |
| 20260503214733 | 12 | 229 | 8.0 | 20.9 | 0.00 | 0.00 | 0.00 | 58 | 1007.4 |
| 20260503214559 | 11 | 239 | 8.0 | 0.0 | 0.00 | 0.00 | 0.00 | 58 | 1007.6 |
| 20260503213229 | 12 | 205 | 16.1 | 29.0 | 0.00 | 0.00 | 0.00 | 57 | 1007.3 |
| 20260503213009 | 12 | 259 | 9.7 | 0.0 | 0.00 | 0.00 | 0.00 | 57 | 1007.6 |
| 20260503211729 | 12 | 227 | 8.0 | 29.0 | 0.00 | 0.00 | 0.00 | 58 | 1007.2 |
| 20260503211607 | 12 | 215 | 9.7 | 0.0 | 0.00 | 0.00 | 0.00 | 58 | 1007.5 |
| 20260503210231 | 12 | 215 | 8.0 | 27.4 | 0.00 | 0.00 | 0.00 | 55 | 1007.6 |
| 20260503210048 | 12 | 267 | 12.9 | 0.0 | 0.00 | 0.00 | 0.00 | 55 | 1008.0 |
| 20260503204756 | 12 | 223 | 11.3 | 25.7 | 0.00 | 0.00 | 0.00 | 54 | 1007.5 |
| 20260503204605 | 12 | 240 | 9.7 | 0.0 | 0.00 | 0.00 | 0.00 | 54 | 1007.8 |
| 20260503203233 | 13 | 214 | 9.7 | 24.1 | 0.00 | 0.00 | 0.00 | 52 | 1007.6 |
| 20260503203052 | 12 | 207 | 11.3 | 0.0 | 0.00 | 0.00 | 0.00 | 52 | 1007.9 |
| 20260503201725 | 13 | 249 | 16.1 | 27.4 | 0.00 | 0.00 | 0.00 | 50 | 1007.7 |
| 20260503201503 | 13 | 227 | 8.0 | 0.0 | 0.00 | 0.00 | 0.00 | 51 | 1008.0 |
| 20260503200235 | 13 | 238 | 22.5 | 37.0 | 0.00 | 0.00 | 0.00 | 49 | 1007.9 |
| 20260503200135 | 13 | 234 | 11.3 | 0.0 | 0.00 | 0.00 | 0.00 | 49 | 1008.2 |
| 20260503194733 | 13 | 239 | 12.9 | 37.0 | 0.00 | 0.00 | 0.00 | 49 | 1008.1 |
| 20260503194559 | 13 | 226 | 14.5 | 0.0 | 0.00 | 0.00 | 0.00 | 49 | 1008.4 |
| 20260503193221 | 13 | 240 | 22.5 | 30.6 | 0.00 | 0.00 | 0.00 | 51 | 1008.5 |
| 20260503193054 | 12 | 215 | 9.7 | 0.0 | 0.00 | 0.00 | 0.00 | 50 | 1008.8 |
| 20260503191727 | 12 | 238 | 14.5 | 38.6 | 0.00 | 0.00 | 0.00 | 48 | 1008.8 |
| 20260503191607 | 12 | 190 | 16.1 | 0.0 | 0.00 | 0.00 | 0.00 | 49 | 1009.2 |
| 20260503190224 | 12 | 274 | 24.1 | 33.8 | 0.00 | 0.00 | 0.00 | 48 | 1009.2 |
| 20260503190107 | 12 | 251 | 11.3 | 0.0 | 0.00 | 0.00 | 0.00 | 48 | 1009.5 |
| 20260503184727 | 13 | 244 | 16.1 | 32.2 | 0.00 | 0.00 | 0.00 | 47 | 1009.5 |
| 20260503184509 | 12 | 288 | 11.3 | 0.0 | 0.00 | 0.00 | 0.00 | 50 | 1009.8 |
| 20260503183222 | 12 | 233 | 19.3 | 33.8 | 0.00 | 0.00 | 0.00 | 51 | 1009.8 |
| 20260503183117 | 12 | 212 | 16.1 | 0.0 | 0.00 | 0.00 | 0.00 | 51 | 1010.1 |
| 20260503181730 | 11 | 238 | 6.4 | 16.1 | 0.00 | 0.00 | 0.00 | 63 | 1009.9 |
| 20260503181559 | 11 | 303 | 4.8 | 0.0 | 0.00 | 0.00 | 0.00 | 64 | 1010.2 |
| 20260503180233 | 11 | 314 | 4.8 | 9.7 | 0.00 | 0.00 | 0.00 | 64 | 1010.0 |
| 20260503174749 | 12 | 317 | 4.8 | 14.5 | 0.00 | 0.00 | 0.00 | 67 | 1010.1 |
| 20260503174506 | 11 | 327 | 4.8 | 0.0 | 0.00 | 0.00 | 0.00 | 67 | 1010.4 |
| 20260503173232 | 11 | 313 | 1.6 | 11.3 | 0.00 | 0.00 | 0.00 | 68 | 1010.2 |
| 20260503173117 | 11 | 310 | 3.2 | 0.0 | 0.00 | 0.00 | 0.00 | 69 | 1010.5 |
| 20260503171725 | 10 | 327 | 4.8 | 14.5 | 0.00 | 0.03 | 0.00 | 70 | 1010.3 |
| 20260503171601 | 10 | 311 | 4.8 | 0.0 | 0.00 | 0.00 | 0.00 | 70 | 1010.7 |
| 20260503170223 | 10 | 325 | 3.2 | 16.1 | 0.00 | 0.03 | 0.00 | 72 | 1010.8 |
| 20260503150236 | 10 | 215 | 6.4 | 19.3 | 0.00 | 0.03 | 0.00 | 61 | 1011.5 |
| 20260503150114 | 10 | 223 | 6.4 | 0.0 | 0.00 | 0.00 | 0.00 | 61 | 1011.8 |
| 20260503140226 | 8 | 230 | 6.4 | 20.9 | 0.00 | 0.03 | 0.00 | 64 | 1012.0 |
| 20260503130218 | 7 | 219 | 9.7 | 16.1 | 0.00 | 0.03 | 0.00 | 66 | 1012.7 |
| 20260503120137 | 4 | 219 | 3.2 | 0.0 | 0.00 | 0.00 | 0.00 | 76 | 1013.1 |
| 20260503110225 | 1 | 221 | 0.0 | 6.4 | 0.00 | 0.03 | 0.00 | 87 | 1012.7 |
| 20260503100233 | 1 | 222 | 1.6 | 8.0 | 0.00 | 0.03 | 0.00 | 88 | 1012.5 |
| 20260503100106 | 1 | 222 | 3.2 | 0.0 | 0.00 | 0.00 | 0.00 | 88 | 1012.7 |
| 20260503090226 | 2 | 221 | 1.6 | 4.8 | 0.00 | 0.03 | 0.00 | 88 | 1012.4 |
| 20260503081620 | 2 | 221 | 3.2 | 0.0 | 0.00 | 0.00 | 0.00 | 87 | 1012.8 |
| 20260503080227 | 2 | 222 | 3.2 | 9.7 | 0.00 | 0.03 | 0.00 | 87 | 1012.5 |
| 20260503071723 | 2 | 223 | 1.6 | 9.7 | 0.00 | 0.03 | 0.00 | 86 | 1012.5 |
| 20260503071606 | 2 | 223 | 3.2 | 0.0 | 0.00 | 0.00 | 0.00 | 86 | 1012.8 |
| 20260503070235 | 2 | 222 | 3.2 | 9.7 | 0.00 | 0.03 | 0.00 | 87 | 1012.5 |
| 20260503060239 | 2 | 239 | 0.0 | 3.2 | 0.00 | 0.03 | 0.00 | 86 | 1012.8 |
| 20260503060143 | 2 | 239 | 0.0 | 0.0 | 0.00 | 0.00 | 0.00 | 86 | 1013.1 |
| 20260503054735 | 3 | 239 | 1.6 | 6.4 | 0.00 | 0.03 | 0.00 | 83 | 1012.8 |
| 20260503054600 | 3 | 239 | 0.0 | 0.0 | 0.00 | 0.00 | 0.00 | 83 | 1013.1 |